Disclaimer

Please do not use the information listed here in-flight or in-navigation, as they are not provided to us by the airports but are provided by volunteers, so they might be outdated.

Search


Regions


Airport information page

Radio informations:
Tower (TWR) - 122.05 MHz

Airport informations:
Latitude: 64° 37' 29.18" N
Longitude: 021° 04' 36.81" E
Elevation: 157 feet - 48 meters
Operating hours: 24 hour operations
Operating agency: Civil government, landing fees and diplomatic clearance may be required
Timezone: UTC+1(+2DT) - Last Sunday in March to last Sunday in October
Fuel: Jet A1, without icing nhibitor.

100/130 MIL Spec, low lead, aviation gasoline (BLUE)

Runway information:
10/28 - 6890 x 148 feet< - >2100 x 45 meters

Recent METARs:
ESNS 212020Z 25003KT CAVOK M18/M20 Q1013
ESNS 212050Z 25003KT CAVOK M18/M20 Q1013
ESNS 212120Z 25003KT CAVOK M18/M20 Q1014

Airport on the map: